CFG1HR EGKK-EDDF

Flight info

Callsign CFG1HR
Flight time N/A
Altitude 35000
Route DVR2P DVR UL9 KONAN UL607 KOK DCT REMBA UL607 SPI T180 NIVNU T847 IMCOM IMCO1B
Aircraft E190/M-SDE3GILORVW/S

Departure

Time 2026-05-04 12:26
Airport London Gatwick Airport (EGKK)

Arrival

Time N/A
Airport Frankfurt Main Airport (EDDF)
Time Latitude Longitude Altitude Speed Heading
2026-05-04 11:47 51.15855 -0.17435 199 ft 0 kts 347°
2026-05-04 12:05 51.15853 -0.17434 199 ft 1 kts 347°
2026-05-04 12:06 51.15839 -0.17429 199 ft 2 kts 347°
2026-05-04 12:06 51.15824 -0.17424 199 ft 2 kts 347°
2026-05-04 12:06 51.15810 -0.17418 199 ft 1 kts 347°
2026-05-04 12:06 51.15800 -0.17414 199 ft 2 kts 335°
2026-05-04 12:07 51.15788 -0.17400 199 ft 2 kts 305°
2026-05-04 12:07 51.15782 -0.17378 199 ft 2 kts 277°
2026-05-04 12:07 51.15782 -0.17363 199 ft 0 kts 260°
2026-05-04 12:07 51.15784 -0.17352 199 ft 0 kts 258°
2026-05-04 12:10 51.15783 -0.17360 199 ft 1 kts 258°
2026-05-04 12:10 51.15782 -0.17363 199 ft 0 kts 258°
2026-05-04 12:10 51.15782 -0.17366 199 ft 0 kts 258°
2026-05-04 12:11 51.15779 -0.17388 199 ft 4 kts 259°
2026-05-04 12:12 51.15771 -0.17454 199 ft 6 kts 258°
2026-05-04 12:12 51.15760 -0.17531 199 ft 7 kts 258°
2026-05-04 12:12 51.15748 -0.17619 199 ft 8 kts 258°
2026-05-04 12:12 51.15735 -0.17713 199 ft 8 kts 257°
2026-05-04 12:13 51.15721 -0.17813 199 ft 9 kts 257°
2026-05-04 12:14 51.15385 -0.18276 199 ft 16 kts 167°
2026-05-04 12:15 51.15269 -0.18234 199 ft 17 kts 168°
2026-05-04 12:15 51.15187 -0.18305 199 ft 16 kts 267°
2026-05-04 12:15 51.15167 -0.18478 199 ft 16 kts 257°
2026-05-04 12:15 51.15140 -0.18667 199 ft 18 kts 259°
2026-05-04 12:16 51.15112 -0.18873 199 ft 19 kts 257°
2026-05-04 12:16 51.15083 -0.19089 199 ft 20 kts 257°
2026-05-04 12:16 51.15052 -0.19315 199 ft 21 kts 258°
2026-05-04 12:16 51.15018 -0.19557 199 ft 23 kts 257°
2026-05-04 12:17 51.14982 -0.19817 199 ft 24 kts 258°
2026-05-04 12:17 51.14944 -0.20092 199 ft 26 kts 257°
2026-05-04 12:17 51.14904 -0.20383 199 ft 27 kts 258°
2026-05-04 12:17 51.14870 -0.20615 199 ft 13 kts 258°
2026-05-04 12:18 51.14853 -0.20740 199 ft 12 kts 258°
2026-05-04 12:18 51.14835 -0.20877 199 ft 13 kts 258°
2026-05-04 12:18 51.14815 -0.21026 199 ft 14 kts 258°
2026-05-04 12:18 51.14787 -0.21177 199 ft 14 kts 248°
2026-05-04 12:19 51.14763 -0.21332 199 ft 11 kts 258°
2026-05-04 12:19 51.14748 -0.21391 199 ft 5 kts 231°
2026-05-04 12:19 51.14727 -0.21406 199 ft 0 kts 169°
2026-05-04 12:20 51.14719 -0.21403 199 ft 3 kts 169°
2026-05-04 12:20 51.14679 -0.21384 199 ft 6 kts 141°
2026-05-04 12:20 51.14678 -0.21382 199 ft 0 kts 141°
2026-05-04 12:20 51.14677 -0.21382 199 ft 0 kts 141°
2026-05-04 12:21 51.14671 -0.21373 199 ft 3 kts 136°
2026-05-04 12:21 51.14642 -0.21335 199 ft 7 kts 163°
2026-05-04 12:21 51.14617 -0.21327 199 ft 0 kts 168°
2026-05-04 12:24 51.14587 -0.21316 199 ft 7 kts 165°
2026-05-04 12:24 51.14527 -0.21248 199 ft 13 kts 121°
2026-05-04 12:24 51.14526 -0.21122 199 ft 2 kts 78°
2026-05-04 12:24 51.14526 -0.21120 199 ft 0 kts 78°
2026-05-04 12:25 51.14547 -0.20972 199 ft 46 kts 77°
2026-05-04 12:26 51.14673 -0.20078 199 ft 116 kts 77°
2026-05-04 12:26 51.14878 -0.18532 261 ft 161 kts 78°
2026-05-04 12:26 51.15126 -0.16728 756 ft 176 kts 78°
2026-05-04 12:26 51.15371 -0.14955 1283 ft 148 kts 76°
2026-05-04 12:27 51.15590 -0.13381 1734 ft 154 kts 75°
2026-05-04 12:27 51.15830 -0.11649 2366 ft 168 kts 76°
2026-05-04 12:27 51.16086 -0.09795 3018 ft 181 kts 77°
2026-05-04 12:27 51.16365 -0.07767 3687 ft 195 kts 77°
2026-05-04 12:28 51.16665 -0.05576 4314 ft 214 kts 77°
2026-05-04 12:28 51.16884 -0.03164 5085 ft 227 kts 90°
2026-05-04 12:28 51.16844 -0.00646 5911 ft 237 kts 92°
2026-05-04 12:28 51.16797 0.01992 6755 ft 245 kts 92°
2026-05-04 12:29 51.16746 0.04788 7377 ft 263 kts 92°
2026-05-04 12:29 51.16690 0.07807 8039 ft 279 kts 92°
2026-05-04 12:29 51.16633 0.10913 8867 ft 287 kts 92°
2026-05-04 12:29 51.16575 0.14072 9782 ft 291 kts 92°
2026-05-04 12:30 51.16557 0.17289 10705 ft 293 kts 91°
2026-05-04 12:30 51.16565 0.20518 11560 ft 297 kts 90°
2026-05-04 12:30 51.16571 0.23812 12385 ft 302 kts 90°
2026-05-04 12:30 51.16577 0.27159 13179 ft 307 kts 90°
2026-05-04 12:31 51.16582 0.30542 13954 ft 311 kts 90°
2026-05-04 12:31 51.16587 0.34040 14595 ft 322 kts 90°
2026-05-04 12:31 51.16590 0.37651 15080 ft 336 kts 90°
2026-05-04 12:31 51.16592 0.41424 15721 ft 345 kts 91°
2026-05-04 12:32 51.16593 0.45244 16504 ft 349 kts 91°
2026-05-04 12:32 51.16593 0.49083 17351 ft 350 kts 91°
2026-05-04 12:33 51.16586 0.60238 19491 ft 361 kts 91°
2026-05-04 12:33 51.16581 0.64247 20147 ft 367 kts 91°
2026-05-04 12:33 51.16575 0.68340 20809 ft 372 kts 92°
2026-05-04 12:33 51.16566 0.72503 21475 ft 377 kts 92°
2026-05-04 12:34 51.16557 0.76700 22134 ft 382 kts 92°
2026-05-04 12:34 51.16546 0.80922 22739 ft 388 kts 92°
2026-05-04 12:34 51.16533 0.85236 23331 ft 393 kts 93°
2026-05-04 12:34 51.16518 0.89600 23911 ft 399 kts 93°
2026-05-04 12:35 51.16501 0.94000 24489 ft 404 kts 93°
2026-05-04 12:35 51.16483 0.98450 25148 ft 407 kts 93°
2026-05-04 12:35 51.16463 1.02928 25808 ft 409 kts 93°
2026-05-04 12:35 51.16441 1.07461 26440 ft 412 kts 94°
2026-05-04 12:36 51.16416 1.12076 27082 ft 414 kts 94°
2026-05-04 12:36 51.16390 1.16658 27662 ft 418 kts 94°
2026-05-04 12:36 51.16362 1.21272 28244 ft 421 kts 94°
2026-05-04 12:36 51.16332 1.25890 28809 ft 424 kts 94°
2026-05-04 12:37 51.16299 1.30597 29370 ft 427 kts 94°
2026-05-04 12:37 51.16265 1.35318 29937 ft 430 kts 94°
2026-05-04 12:37 51.16089 1.40014 30450 ft 431 kts 98°
2026-05-04 12:37 51.15845 1.44818 30962 ft 435 kts 98°
2026-05-04 12:38 51.15609 1.49649 31487 ft 437 kts 98°
2026-05-04 12:38 51.15376 1.54435 31978 ft 440 kts 98°
2026-05-04 12:38 51.15139 1.59296 32509 ft 441 kts 98°
2026-05-04 12:38 51.14900 1.64163 33076 ft 441 kts 98°
2026-05-04 12:39 51.14657 1.69055 33690 ft 439 kts 99°
2026-05-04 12:39 51.14414 1.73923 34288 ft 438 kts 99°
2026-05-04 12:39 51.14171 1.78752 34809 ft 437 kts 99°
2026-05-04 12:39 51.13926 1.83555 34935 ft 442 kts 98°
2026-05-04 12:40 51.13674 1.88438 34966 ft 453 kts 98°
2026-05-04 12:40 51.13147 1.98610 34973 ft 466 kts 98°
2026-05-04 12:41 51.12607 2.08848 34968 ft 466 kts 98°
2026-05-04 12:41 51.12058 2.19082 34961 ft 465 kts 98°
2026-05-04 12:42 51.11499 2.29310 34965 ft 465 kts 98°
2026-05-04 12:42 51.10931 2.39557 34962 ft 466 kts 99°
2026-05-04 12:43 51.10354 2.49804 34964 ft 466 kts 99°
2026-05-04 12:43 51.09767 2.60053 34964 ft 465 kts 99°
2026-05-04 12:44 51.08595 2.70007 34973 ft 460 kts 111°
2026-05-04 12:44 51.06835 2.79758 34968 ft 459 kts 111°
2026-05-04 12:45 51.05058 2.89535 34965 ft 459 kts 111°
2026-05-04 12:45 51.03283 2.99249 34963 ft 461 kts 111°
2026-05-04 12:46 51.01485 3.09037 34957 ft 461 kts 111°
2026-05-04 12:46 50.99688 3.18773 34952 ft 460 kts 111°
2026-05-04 12:47 50.97876 3.28532 34948 ft 460 kts 111°
2026-05-04 12:47 50.96071 3.38208 34943 ft 460 kts 111°
2026-05-04 12:48 50.94244 3.47941 34942 ft 460 kts 111°
2026-05-04 12:48 50.92426 3.57589 34943 ft 460 kts 111°
2026-05-04 12:49 50.90582 3.67316 34941 ft 460 kts 112°
2026-05-04 12:49 50.88733 3.77019 34950 ft 460 kts 112°
2026-05-04 12:50 50.86873 3.86734 34950 ft 459 kts 112°
2026-05-04 12:50 50.85017 3.96375 34951 ft 460 kts 112°
2026-05-04 12:51 50.83157 4.05992 34958 ft 461 kts 112°
2026-05-04 12:51 50.81281 4.15638 34964 ft 461 kts 112°
2026-05-04 12:52 50.79396 4.25280 34967 ft 461 kts 112°
2026-05-04 12:52 50.77821 4.33307 34972 ft 460 kts 112°